period_start,C,m1,H,J0,J1,J2,J3,J4,J5,JA,JB,JC,JD,JJ,JK,JN,#
2013-07-24 00:00:54,0.01,0.08,0.00,30.19,32.67,35.08,5.90,32.04,1021.06,2033.00,3417.04,3306.00,3590.57,350.70,318.26,11.52,0000 0000 0000 0000 000000
2013-07-24 00:01:54,0.03,0.08,0.00,30.17,32.67,35.09,5.88,32.00,1021.04,2033.00,3417.01,3305.98,3590.34,349.89,317.57,11.53,0000 0000 0000 0000 000000
2013-07-24 00:02:54,0.03,0.08,0.00,30.19,32.67,35.09,5.80,31.71,1021.05,2032.99,3417.00,3305.98,3590.18,349.71,317.41,11.54,0000 0000 0000 0000 000000
2013-07-24 00:03:54,0.01,0.08,0.00,30.21,32.68,35.10,6.00,32.04,1021.03,2032.98,3417.00,3305.98,3590.15,351.45,318.96,11.54,0000 0000 0000 0000 000000
2013-07-24 00:04:54,-0.01,0.08,0.00,30.26,32.69,35.10,5.81,31.83,1021.04,2032.96,3417.00,3305.97,3590.08,350.12,317.62,11.55,0000 0000 0000 0000 000000
2013-07-24 00:05:55,0.00,0.08,0.00,30.28,32.70,35.10,5.98,31.96,1021.05,2032.96,3417.00,3305.91,3590.03,350.01,317.58,11.55,0000 0000 0000 0000 000000
2013-07-24 00:06:55,0.02,0.08,0.00,30.29,32.70,35.11,5.83,31.88,1021.08,2032.95,3417.00,3305.77,3590.01,349.97,317.49,11.56,0000 0000 0000 0000 000000
2013-07-24 00:07:55,0.02,0.08,0.00,30.26,32.70,35.12,5.97,32.38,1021.10,2032.92,3416.99,3305.62,3590.00,350.60,318.15,11.56,0000 0000 0000 0000 000000
2013-07-24 00:08:55,-0.01,0.08,0.00,30.30,32.71,35.12,5.86,32.13,1021.09,2032.84,3416.89,3305.38,3590.00,350.44,317.77,11.57,0000 0000 0000 0000 000000
2013-07-24 00:09:55,0.02,0.08,0.00,30.32,32.72,35.13,5.87,32.08,1021.08,2032.87,3416.83,3305.27,3590.00,349.45,317.43,11.58,0000 0000 0000 0000 000000
2013-07-24 00:10:56,0.03,0.08,0.00,30.30,32.72,35.14,5.88,31.96,1021.07,2032.84,3416.78,3305.18,3590.00,350.40,317.93,11.58,0000 0000 0000 0000 000000
2013-07-24 00:11:56,-0.01,0.08,0.00,30.30,32.72,35.14,5.83,31.92,1021.07,2032.74,3416.57,3305.10,3589.98,350.23,317.76,11.59,0000 0000 0000 0000 000000
2013-07-24 00:12:56,-0.03,0.08,0.00,30.30,32.73,35.15,5.71,32.00,1021.06,2032.71,3416.46,3305.05,3589.96,349.61,316.77,11.59,0000 0000 0000 0000 000000
2013-07-24 00:13:56,0.02,0.08,0.00,30.28,32.74,35.16,5.91,31.63,1021.06,2032.60,3416.44,3305.05,3589.95,350.72,318.64,11.60,0000 0000 0000 0000 000000
2013-07-24 00:14:56,-0.05,0.08,0.00,30.28,32.75,35.16,5.80,32.00,1021.06,2032.63,3416.46,3305.05,3589.96,348.49,316.21,11.61,0000 0000 0000 0000 000000
2013-07-24 00:15:57,0.01,0.08,0.00,30.29,32.75,35.16,5.82,31.79,1021.08,2032.52,3416.36,3305.03,3589.92,350.85,318.37,11.61,0000 0000 0000 0000 000000
2013-07-24 00:16:57,-0.09,0.08,0.00,30.34,32.75,35.17,5.88,31.83,1021.05,2032.39,3416.23,3305.02,3589.87,350.48,318.12,11.62,0000 0000 0000 0000 000000
2013-07-24 00:17:57,-0.06,0.08,0.00,30.37,32.76,35.18,5.92,31.71,1021.05,2032.40,3416.17,3305.00,3589.81,351.05,318.44,11.62,0000 0000 0000 0000 000000
2013-07-24 00:18:57,0.04,0.08,0.00,30.42,32.77,35.19,5.86,31.88,1021.08,2032.30,3416.13,3305.00,3589.68,350.13,317.56,11.63,0000 0000 0000 0000 000000
2013-07-24 00:19:58,-0.06,0.08,0.00,30.41,32.77,35.19,5.80,31.63,1021.06,2032.24,3416.07,3305.00,3589.43,350.02,317.45,11.63,0000 0000 0000 0000 000000
2013-07-24 00:20:58,-0.01,0.08,0.00,30.43,32.77,35.20,5.86,31.63,1021.06,2032.16,3416.02,3305.00,3589.28,349.10,316.61,11.64,0000 0000 0000 0000 000000
2013-07-24 00:21:58,-0.05,0.08,0.00,30.44,32.78,35.21,5.90,31.92,1021.05,2032.14,3416.00,3305.00,3589.16,351.04,318.35,11.65,0000 0000 0000 0000 000000
2013-07-24 00:22:58,0.02,0.08,0.00,30.40,32.80,35.22,5.69,31.63,1021.07,2032.11,3416.00,3305.00,3589.10,349.45,316.95,11.65,0000 0000 0000 0000 000000
2013-07-24 00:23:59,-0.03,0.08,0.00,30.37,32.80,35.23,5.81,32.04,1021.07,2032.06,3415.99,3304.99,3589.04,349.75,317.13,11.66,0000 0000 0000 0000 000000
2013-07-24 00:24:59,-0.04,0.08,0.00,30.38,32.80,35.23,5.92,31.79,1021.04,2032.04,3415.98,3304.99,3589.01,350.59,317.65,11.66,0000 0000 0000 0000 000000
2013-07-24 00:25:59,-0.01,0.08,0.00,30.41,32.80,35.23,5.75,31.92,1021.03,2032.04,3415.99,3304.99,3589.00,348.68,316.74,11.67,0000 0000 0000 0000 000000
2013-07-24 00:26:59,0.01,0.08,0.00,30.42,32.81,35.23,5.95,32.21,1021.06,2032.02,3415.99,3304.97,3589.00,350.99,318.08,11.68,0000 0000 0000 0000 000000
2013-07-24 00:28:00,-0.01,0.08,0.00,30.45,32.82,35.25,5.73,31.79,1021.07,2032.03,3415.99,3304.91,3589.00,349.21,316.90,11.68,0000 0000 0000 0000 000000
2013-07-24 00:29:00,0.01,0.08,0.00,30.46,32.82,35.26,6.06,32.29,1021.07,2032.03,3415.99,3304.90,3589.00,351.65,318.88,11.69,0000 0000 0000 0000 000000
2013-07-24 00:30:00,0.00,0.08,0.00,30.46,32.82,35.26,5.83,31.96,1021.07,2032.01,3415.98,3304.85,3589.00,349.96,317.36,11.69,0000 0000 0000 0000 000000
2013-07-24 00:31:00,0.00,0.08,0.00,30.52,32.83,35.26,5.82,31.63,1021.04,2032.00,3415.98,3304.77,3589.00,350.60,317.86,11.70,0000 0000 0000 0000 000000
2013-07-24 00:32:01,0.01,0.08,0.00,30.50,32.84,35.27,5.80,31.96,1021.06,2032.00,3415.95,3304.55,3589.00,349.33,316.73,11.70,0000 0000 0000 0000 000000
2013-07-24 00:33:01,0.05,0.08,0.00,30.47,32.85,35.27,5.82,31.71,1021.05,2032.00,3415.90,3304.29,3588.97,350.75,317.87,11.71,0000 0000 0000 0000 000000
2013-07-24 00:34:01,0.07,0.08,0.00,30.51,32.85,35.27,5.76,31.58,1021.04,2032.00,3415.79,3304.17,3588.92,348.46,315.75,11.72,0000 0000 0000 0000 000000
2013-07-24 00:35:01,0.04,0.08,0.00,30.52,32.85,35.28,5.78,31.92,1021.01,2032.00,3415.67,3304.09,3588.82,349.60,316.57,11.72,0000 0000 0000 0000 000000
2013-07-24 00:36:02,0.04,0.08,0.00,30.55,32.87,35.30,5.84,32.29,1021.02,2032.00,3415.52,3304.03,3588.73,348.99,317.17,11.73,0000 0000 0000 0000 000000
2013-07-24 00:37:02,0.04,0.08,0.00,30.54,32.87,35.31,5.91,32.08,1021.02,2032.00,3415.34,3304.03,3588.66,350.34,317.60,11.73,0000 0000 0000 0000 000000
2013-07-24 00:38:02,0.05,0.08,0.00,30.53,32.87,35.31,5.84,31.96,1021.03,2032.00,3415.18,3304.01,3588.47,349.92,317.23,11.74,0000 0000 0000 0000 000000
2013-07-24 00:39:02,0.03,0.08,0.00,30.54,32.88,35.32,5.86,31.83,1021.03,2032.00,3415.10,3304.00,3588.27,348.83,316.23,11.75,0000 0000 0000 0000 000000
2013-07-24 00:40:03,0.03,0.08,0.00,30.54,32.90,35.33,5.93,31.88,1021.03,2032.00,3415.06,3304.00,3588.17,350.87,318.08,11.75,0000 0000 0000 0000 000000
2013-07-24 00:41:03,0.01,0.08,0.00,30.48,32.90,35.32,5.85,31.58,1021.02,2032.00,3415.02,3304.00,3588.09,350.89,318.15,11.76,0000 0000 0000 0000 000000
2013-07-24 00:42:03,0.01,0.08,0.00,30.52,32.90,35.34,5.93,31.79,1021.03,2032.00,3415.02,3304.00,3588.06,350.89,318.12,11.76,0000 0000 0000 0000 000000
2013-07-24 00:43:04,0.00,0.08,0.00,30.54,32.90,35.34,5.79,32.29,1021.03,2032.00,3415.00,3304.00,3588.03,349.78,317.18,11.77,0000 0000 0000 0000 000000
2013-07-24 00:44:04,0.00,0.08,0.00,30.55,32.91,35.35,5.83,31.71,1021.03,2031.98,3415.00,3304.00,3588.02,350.78,317.84,11.78,0000 0000 0000 0000 000000
2013-07-24 00:45:04,0.00,0.08,0.00,30.54,32.92,35.36,5.88,31.71,1021.03,2031.98,3415.00,3303.99,3588.00,350.44,317.69,11.78,0000 0000 0000 0000 000000
2013-07-24 00:46:05,0.00,0.08,0.00,30.55,32.92,35.37,5.87,31.92,1021.04,2031.98,3414.98,3303.94,3588.00,349.70,317.07,11.79,0000 0000 0000 0000 000000
2013-07-24 00:47:05,0.01,0.08,0.00,30.58,32.93,35.38,5.95,31.63,1021.03,2031.97,3414.99,3303.93,3588.00,350.79,317.96,11.79,0000 0000 0000 0000 000000
2013-07-24 00:48:05,0.00,0.08,0.00,30.60,32.94,35.39,5.93,31.92,1021.02,2031.97,3414.96,3303.87,3588.00,350.16,317.34,11.80,0000 0000 0000 0000 000000
2013-07-24 00:49:06,0.01,0.08,0.00,30.61,32.95,35.38,5.74,31.71,1021.03,2031.95,3414.92,3303.70,3587.99,350.22,317.52,11.80,0000 0000 0000 0000 000000
2013-07-24 00:50:06,0.01,0.08,0.00,30.58,32.95,35.40,5.83,31.50,1021.04,2031.90,3414.90,3303.62,3587.96,349.94,317.13,11.81,0000 0000 0000 0000 000000
2013-07-24 00:51:06,-0.00,0.08,0.00,30.59,32.96,35.40,5.90,31.88,1021.02,2031.87,3414.83,3303.46,3587.92,350.59,317.63,11.82,0000 0000 0000 0000 000000
2013-07-24 00:52:06,0.01,0.08,0.00,30.62,32.97,35.41,5.77,31.42,1021.02,2031.79,3414.71,3303.30,3587.84,348.97,316.04,11.82,0000 0000 0000 0000 000000
2013-07-24 00:53:07,0.01,0.08,0.00,30.65,32.97,35.41,5.77,31.63,1021.01,2031.74,3414.44,3303.18,3587.67,350.47,317.38,11.83,0000 0000 0000 0000 000000
2013-07-24 00:54:07,0.04,0.08,0.00,30.67,32.97,35.43,5.85,31.75,1021.01,2031.73,3414.36,3303.15,3587.59,349.68,316.70,11.83,0000 0000 0000 0000 000000
2013-07-24 00:55:07,0.05,0.08,0.00,30.66,32.97,35.42,5.84,31.50,1021.02,2031.80,3414.29,3303.12,3587.42,350.92,318.00,11.84,0000 0000 0000 0000 000000
2013-07-24 00:56:07,0.05,0.08,0.00,30.64,32.99,35.44,5.79,31.79,1021.03,2031.63,3414.19,3303.04,3587.24,349.46,316.70,11.85,0000 0000 0000 0000 000000
2013-07-24 00:57:08,-0.07,0.08,0.00,30.62,33.00,35.45,5.85,31.67,1021.03,2031.43,3414.11,3303.01,3587.13,349.78,317.01,11.85,0000 0000 0000 0000 000000
2013-07-24 00:58:08,-0.11,0.08,0.00,30.62,33.00,35.46,5.77,31.96,1021.01,2031.34,3414.06,3303.00,3587.07,349.33,316.60,11.86,0000 0000 0000 0000 000000
2013-07-24 00:59:08,-0.05,0.08,0.00,30.63,33.00,35.46,5.82,31.67,1021.02,2031.29,3414.04,3303.00,3587.04,350.08,317.27,11.86,0000 0000 0000 0000 000000
2013-07-24 01:00:09,-0.04,0.08,0.00,30.63,33.01,35.46,5.89,31.71,1021.04,2031.23,3414.02,3303.00,3587.01,351.11,317.99,11.87,0000 0000 0000 0000 000000
2013-07-24 01:01:09,-0.04,0.08,0.00,30.67,33.02,35.48,5.93,31.75,1021.03,2031.21,3414.00,3303.00,3587.00,349.86,317.31,11.87,0000 0000 0000 0000 000000
2013-07-24 01:02:09,0.00,0.08,0.00,30.67,33.02,35.49,5.90,32.00,1021.02,2031.20,3414.00,3303.00,3587.00,349.66,317.17,11.88,0000 0000 0000 0000 000000
2013-07-24 01:03:09,-0.02,0.08,0.00,30.70,33.02,35.49,5.86,31.58,1021.02,2031.14,3413.99,3303.00,3587.00,350.46,317.55,11.89,0000 0000 0000 0000 000000
2013-07-24 01:04:09,-0.05,0.08,0.00,30.70,33.04,35.49,5.76,31.46,1021.01,2031.07,3413.99,3302.98,3587.00,349.07,316.29,11.89,0000 0000 0000 0000 000000
2013-07-24 01:05:10,-0.04,0.08,0.00,30.70,33.05,35.50,5.83,31.83,1021.02,2031.03,3413.98,3302.95,3586.99,350.21,317.60,11.90,0000 0000 0000 0000 000000
2013-07-24 01:06:10,-0.03,0.08,0.00,30.70,33.05,35.51,5.91,31.67,1021.02,2031.02,3413.96,3302.93,3586.96,350.57,317.72,11.90,0000 0000 0000 0000 000000
2013-07-24 01:07:10,0.01,0.08,0.00,30.72,33.05,35.49,5.83,31.54,1021.02,2031.02,3413.89,3302.77,3586.92,350.35,317.42,11.91,0000 0000 0000 0000 000000
2013-07-24 01:08:11,0.05,0.08,0.00,30.70,33.07,35.50,5.82,31.58,1021.02,2031.00,3413.70,3302.49,3586.82,349.27,316.46,11.92,0000 0000 0000 0000 000000
2013-07-24 01:09:11,0.07,0.08,0.00,30.75,33.07,35.53,5.97,31.71,1021.02,2031.01,3413.58,3302.33,3586.68,350.35,317.42,11.92,0000 0000 0000 0000 000000
2013-07-24 01:10:11,0.06,0.08,0.00,30.76,33.07,35.55,5.90,31.79,1021.01,2031.00,3413.49,3302.23,3586.54,350.82,318.30,11.93,0000 0000 0000 0000 000000
2013-07-24 01:11:11,0.04,0.08,0.00,30.77,33.08,35.56,5.88,31.58,1021.01,2031.00,3413.28,3302.13,3586.33,350.77,317.76,11.93,0000 0000 0000 0000 000000
2013-07-24 01:12:12,0.08,0.08,0.00,30.77,33.10,35.54,6.00,31.88,1021.04,2031.00,3413.19,3302.08,3586.15,350.63,317.57,11.94,0000 0000 0000 0000 000000
2013-07-24 01:13:12,0.04,0.08,0.00,30.80,33.10,35.56,5.84,31.79,1021.02,2031.00,3413.11,3302.04,3586.07,350.91,317.84,11.95,0000 0000 0000 0000 000000
2013-07-24 01:14:13,0.02,0.08,0.00,30.80,33.10,35.56,5.99,31.83,1021.01,2031.00,3413.05,3302.01,3586.03,351.00,317.80,11.95,0000 0000 0000 0000 000000
2013-07-24 01:15:13,0.01,0.08,0.00,30.80,33.11,35.57,6.01,31.92,1021.02,2030.99,3413.01,3302.00,3586.01,350.34,317.33,11.96,0000 0000 0000 0000 000000
2013-07-24 01:16:13,0.00,0.08,0.00,30.83,33.12,35.56,5.77,31.67,1021.02,2030.99,3413.00,3302.00,3586.00,349.83,316.40,11.96,0000 0000 0000 0000 000000
2013-07-24 01:17:14,0.00,0.08,0.00,30.87,33.12,35.58,5.79,31.33,1021.01,2030.99,3413.00,3302.00,3586.00,349.99,316.94,11.97,0000 0000 0000 0000 000000
2013-07-24 01:18:14,0.00,0.08,0.00,30.86,33.12,35.60,5.68,31.33,1021.01,2030.98,3413.00,3302.00,3586.00,349.20,316.09,11.97,0000 0000 0000 0000 000000
2013-07-24 01:19:14,0.00,0.08,0.00,30.88,33.14,35.61,5.76,31.46,1021.01,2030.98,3413.00,3302.00,3586.00,349.29,316.43,11.98,0000 0000 0000 0000 000000
2013-07-24 01:20:14,0.00,0.08,0.00,30.85,33.15,35.60,5.90,31.63,1021.01,2030.99,3412.99,3301.99,3586.00,350.07,317.22,11.99,0000 0000 0000 0000 000000
2013-07-24 01:21:14,0.00,0.08,0.00,30.86,33.15,35.63,5.82,31.63,1021.01,2030.97,3412.99,3301.99,3585.99,350.64,317.54,11.99,0000 0000 0000 0000 000000
2013-07-24 01:22:15,0.00,0.08,0.00,30.90,33.15,35.64,5.82,31.67,1021.01,2030.97,3412.97,3301.97,3585.98,349.09,315.85,12.00,0000 0000 0000 0000 000000
2013-07-24 01:23:15,0.00,0.08,0.00,30.91,33.17,35.64,5.88,31.83,1021.01,2030.95,3412.94,3301.91,3585.93,350.72,317.55,12.00,0000 0000 0000 0000 000000
2013-07-24 01:24:15,0.00,0.08,0.00,30.93,33.17,35.62,5.92,31.50,1021.01,2030.95,3412.89,3301.88,3585.91,350.62,317.21,12.01,0000 0000 0000 0000 000000
2013-07-24 01:25:16,0.03,0.08,0.00,30.91,33.18,35.62,5.90,31.83,1021.01,2030.97,3412.88,3301.76,3585.76,350.73,317.60,12.02,0000 0000 0000 0000 000000
2013-07-24 01:26:16,0.04,0.08,0.00,30.92,33.19,35.63,5.69,31.25,1021.01,2030.95,3412.82,3301.63,3585.61,348.64,315.41,12.02,0000 0000 0000 0000 000000
2013-07-24 01:27:17,0.05,0.08,0.00,30.94,33.20,35.68,5.90,31.79,1021.01,2030.89,3412.62,3301.48,3585.44,350.89,317.83,12.03,0000 0000 0000 0000 000000
2013-07-24 01:28:17,0.04,0.08,0.00,31.00,33.20,35.66,5.83,31.46,1021.01,2030.80,3412.37,3301.30,3585.22,349.44,316.58,12.03,0000 0000 0000 0000 000000
2013-07-24 01:29:17,0.04,0.08,0.00,30.96,33.20,35.66,5.82,31.63,1021.01,2030.77,3412.18,3301.17,3585.12,349.68,316.56,12.04,0000 0000 0000 0000 000000
2013-07-24 01:30:18,0.02,0.09,0.00,30.98,33.22,35.68,5.81,31.46,1021.01,2030.66,3412.12,3301.09,3585.05,350.83,317.58,12.04,0000 0000 0000 0000 000000
2013-07-24 01:31:18,-0.04,0.08,0.00,31.03,33.22,35.70,5.78,31.63,1021.01,2030.46,3412.06,3301.03,3585.02,349.14,316.00,12.05,0000 0000 0000 0000 000000
2013-07-24 01:32:18,-0.14,0.08,0.00,31.02,33.22,35.71,5.85,31.75,1021.01,2030.27,3412.02,3301.01,3585.00,349.52,316.36,12.06,0000 0000 0000 0000 000000
2013-07-24 01:33:19,-0.15,0.08,0.00,31.01,33.24,35.71,5.86,32.00,1021.01,2030.18,3412.00,3301.00,3585.00,349.18,315.97,12.06,0000 0000 0000 0000 000000
2013-07-24 01:34:19,-0.05,0.08,0.00,31.00,33.25,35.72,5.74,31.54,1021.01,2030.15,3412.00,3301.00,3585.00,348.53,315.40,12.07,0000 0000 0000 0000 000000
2013-07-24 01:35:19,-0.03,0.08,0.00,31.03,33.25,35.72,5.83,31.63,1021.01,2030.10,3411.99,3301.00,3585.00,349.40,316.24,12.07,0000 0000 0000 0000 000000
2013-07-24 01:36:19,-0.03,0.08,0.00,31.07,33.25,35.71,5.77,31.33,1021.01,2030.05,3411.98,3300.98,3584.97,348.86,315.71,12.08,0000 0000 0000 0000 000000
2013-07-24 01:37:20,-0.03,0.08,0.00,31.09,33.27,35.74,5.83,31.58,1021.01,2030.04,3411.96,3300.98,3584.96,349.90,316.63,12.09,0000 0000 0000 0000 000000
2013-07-24 01:38:20,0.00,0.08,0.00,31.07,33.27,35.75,5.89,31.63,1021.01,2030.04,3411.94,3300.99,3584.92,349.33,316.13,12.09,0000 0000 0000 0000 000000
2013-07-24 01:39:20,0.00,0.08,0.00,31.08,33.27,35.75,5.88,32.00,1021.01,2030.02,3411.91,3300.95,3584.76,350.38,317.08,12.10,0000 0000 0000 0000 000000
2013-07-24 01:40:20,0.01,0.08,0.00,31.08,33.29,35.76,5.90,31.79,1021.01,2030.01,3411.91,3300.90,3584.59,351.13,317.75,12.10,0000 0000 0000 0000 000000
2013-07-24 01:41:21,0.03,0.08,0.00,31.11,33.30,35.76,5.84,31.25,1021.01,2030.01,3411.81,3300.83,3584.40,349.54,316.08,12.11,0000 0000 0000 0000 000000
2013-07-24 01:42:21,0.05,0.08,0.00,31.08,33.30,35.77,5.88,31.92,1021.01,2030.00,3411.48,3300.53,3584.24,350.26,317.20,12.12,0000 0000 0000 0000 000000
2013-07-24 01:43:21,0.10,0.08,0.00,31.10,33.30,35.78,5.91,32.25,1021.01,2030.00,3411.22,3300.24,3584.09,350.06,316.90,12.12,0000 0000 0000 0000 000000
2013-07-24 01:44:21,0.11,0.08,0.00,31.12,33.32,35.77,5.71,32.04,1021.01,2030.00,3411.13,3300.10,3584.03,349.06,315.87,12.13,0000 0000 0000 0000 000000
2013-07-24 01:45:22,0.05,0.08,0.00,31.14,33.32,35.78,5.90,31.67,1021.01,2030.00,3411.06,3300.05,3584.01,350.77,317.24,12.13,0000 0000 0000 0000 000000
2013-07-24 01:46:22,0.01,0.08,0.00,31.11,33.33,35.80,5.79,31.63,1021.01,2030.00,3411.04,3300.03,3584.00,348.93,315.77,12.14,0000 0000 0000 0000 000000
2013-07-24 01:47:22,0.01,0.08,0.00,31.13,33.34,35.81,5.75,31.21,1021.01,2030.00,3411.01,3300.01,3584.00,349.32,316.06,12.14,0000 0000 0000 0000 000000
2013-07-24 01:48:23,0.00,0.08,0.00,31.16,33.35,35.82,5.99,31.75,1021.01,2030.00,3410.99,3300.00,3584.00,350.66,317.25,12.15,0000 0000 0000 0000 000000
2013-07-24 01:49:23,0.00,0.08,0.00,31.16,33.35,35.82,5.81,31.58,1021.01,2030.00,3410.99,3300.00,3583.99,348.97,315.71,12.16,0000 0000 0000 0000 000000
2013-07-24 01:50:23,0.00,0.08,0.00,31.14,33.36,35.81,5.89,31.79,1021.01,2030.00,3410.97,3300.00,3583.96,350.89,317.47,12.16,0000 0000 0000 0000 000000
2013-07-24 01:51:24,0.00,0.08,0.00,31.16,33.37,35.84,5.80,31.25,1021.01,2029.99,3410.98,3300.00,3583.96,349.98,317.12,12.17,0000 0000 0000 0000 000000
2013-07-24 01:52:24,0.00,0.08,0.00,31.19,33.37,35.84,5.74,31.42,1021.01,2029.98,3410.97,3300.00,3583.86,349.39,316.04,12.17,0000 0000 0000 0000 000000
2013-07-24 01:53:24,0.00,0.08,0.00,31.22,33.38,35.85,5.78,31.71,1021.01,2029.96,3410.95,3299.99,3583.78,349.21,315.87,12.18,0000 0000 0000 0000 000000
2013-07-24 01:54:24,0.00,0.08,0.00,31.21,33.40,35.86,5.72,31.88,1021.01,2029.94,3410.76,3299.92,3583.57,349.68,316.25,12.19,0000 0000 0000 0000 000000
2013-07-24 01:55:24,0.08,0.09,0.00,31.24,33.40,35.85,5.88,32.13,1021.02,2029.91,3410.55,3299.78,3583.26,349.90,316.36,12.19,0000 0000 0000 0000 000000
2013-07-24 01:56:25,0.04,0.09,0.00,31.25,33.40,35.87,5.97,31.92,1021.01,2029.86,3410.46,3299.65,3583.15,350.62,317.11,12.20,0000 0000 0000 0000 000000
2013-07-24 01:57:25,0.00,0.09,0.00,31.24,33.42,35.89,5.72,31.88,1021.01,2029.72,3410.28,3299.33,3583.05,349.93,316.50,12.20,0000 0000 0000 0000 000000
2013-07-24 01:58:25,0.01,0.09,0.00,31.20,33.42,35.90,5.96,31.79,1021.01,2029.64,3410.13,3299.17,3583.02,350.32,316.66,12.21,0000 0000 0000 0000 000000
2013-07-24 01:59:26,-0.02,0.09,0.00,31.18,33.43,35.90,5.95,31.88,1021.01,2029.57,3410.05,3299.09,3583.00,349.91,316.71,12.21,0000 0000 0000 0000 000000
2013-07-24 02:00:26,0.01,0.09,0.00,31.23,33.44,35.90,5.92,31.79,1021.01,2029.58,3410.01,3299.07,3583.00,350.50,317.20,12.22,0000 0000 0000 0000 000000
2013-07-24 02:01:26,-0.00,0.09,0.00,31.28,33.45,35.89,5.70,31.71,1021.01,2029.56,3410.01,3299.07,3583.01,349.25,316.25,12.23,0000 0000 0000 0000 000000
2013-07-24 02:02:26,-0.03,0.09,0.00,31.30,33.45,35.90,5.96,31.96,1021.01,2029.50,3410.00,3299.03,3583.00,349.63,316.16,12.23,0000 0000 0000 0000 000000
2013-07-24 02:03:27,-0.04,0.08,0.00,31.31,33.46,35.93,5.76,31.92,1021.01,2029.41,3410.00,3299.01,3583.00,349.44,315.98,12.24,0000 0000 0000 0000 000000
2013-07-24 02:04:27,-0.07,0.08,0.00,31.31,33.47,35.92,5.68,31.29,1021.01,2029.31,3410.00,3299.00,3583.00,350.01,316.70,12.24,0000 0000 0000 0000 000000
2013-07-24 02:05:27,-0.06,0.08,0.00,31.30,33.47,35.92,5.88,31.38,1021.01,2029.26,3410.00,3299.00,3583.00,349.81,316.32,12.25,0000 0000 0000 0000 000000
2013-07-24 02:06:27,-0.03,0.08,0.00,31.29,33.48,35.95,5.87,31.33,1021.01,2029.18,3410.00,3299.00,3583.00,351.22,317.60,12.26,0000 0000 0000 0000 000000
2013-07-24 02:07:27,-0.06,0.08,0.00,31.30,33.50,35.95,5.78,31.71,1021.01,2029.10,3410.00,3299.00,3583.00,349.49,316.04,12.26,0000 0000 0000 0000 000000
2013-07-24 02:08:28,-0.05,0.08,0.00,31.32,33.50,35.96,5.80,31.71,1021.01,2029.07,3410.00,3299.00,3583.00,350.04,316.51,12.27,0000 0000 0000 0000 000000
2013-07-24 02:09:28,-0.01,0.08,0.00,31.30,33.50,35.97,5.73,31.67,1021.01,2029.05,3409.97,3299.00,3582.95,349.62,316.16,12.27,0000 0000 0000 0000 000000
2013-07-24 02:10:28,-0.01,0.08,0.00,31.29,33.52,36.00,5.73,31.88,1021.00,2029.04,3409.88,3298.96,3582.78,348.81,315.43,12.28,0000 0000 0000 0000 000000
2013-07-24 02:11:29,0.03,0.08,0.00,31.30,33.52,36.01,5.88,31.71,1021.01,2029.01,3409.66,3298.90,3582.54,349.10,315.65,12.29,0000 0000 0000 0000 000000
2013-07-24 02:12:29,0.06,0.08,0.00,31.33,33.52,36.02,5.89,32.00,1021.01,2029.00,3409.43,3298.71,3582.31,350.45,316.88,12.29,0000 0000 0000 0000 000000
2013-07-24 02:13:29,0.08,0.08,0.00,31.35,33.54,36.04,5.77,31.79,1021.01,2029.00,3409.28,3298.53,3582.19,349.90,316.35,12.30,0000 0000 0000 0000 000000
2013-07-24 02:14:30,0.07,0.08,0.00,31.35,33.55,36.02,5.83,31.17,1020.99,2029.01,3409.11,3298.33,3582.12,350.58,316.96,12.30,0000 0000 0000 0000 000000
2013-07-24 02:15:30,0.05,0.09,0.00,31.39,33.55,36.03,5.92,31.13,1021.01,2029.00,3409.11,3298.25,3582.06,350.56,317.01,12.31,0000 0000 0000 0000 000000
2013-07-24 02:16:30,0.02,0.09,0.00,31.40,33.56,36.03,5.80,31.33,1020.99,2029.00,3409.07,3298.20,3582.02,349.69,316.11,12.31,0000 0000 0000 0000 000000
2013-07-24 02:17:30,0.02,0.09,0.00,31.43,33.57,36.04,5.70,31.67,1020.98,2029.00,3409.03,3298.10,3582.00,349.62,316.02,12.32,0000 0000 0000 0000 000000
2013-07-24 02:18:31,0.02,0.09,0.00,31.45,33.57,36.05,5.77,31.71,1020.99,2029.00,3409.01,3298.04,3582.00,350.11,316.52,12.33,0000 0000 0000 0000 000000
2013-07-24 02:19:31,0.01,0.09,0.00,31.46,33.58,36.07,5.91,31.17,1021.00,2029.00,3409.00,3298.01,3581.98,350.54,316.55,12.33,0000 0000 0000 0000 000000
2013-07-24 02:20:31,0.01,0.09,0.00,31.47,33.60,36.08,5.93,31.92,1020.99,2029.00,3409.00,3298.00,3581.94,350.08,316.30,12.34,0000 0000 0000 0000 000000
2013-07-24 02:21:31,0.00,0.09,0.00,31.44,33.60,36.09,5.62,31.67,1020.97,2029.00,3408.99,3298.00,3581.91,349.18,315.78,12.34,0000 0000 0000 0000 000000
2013-07-24 02:22:32,0.00,0.09,0.00,31.45,33.60,36.07,5.77,31.54,1020.95,2028.99,3408.95,3297.99,3581.79,350.02,316.35,12.35,0000 0000 0000 0000 000000
2013-07-24 02:23:32,0.01,0.09,0.00,31.48,33.62,36.07,5.69,31.75,1020.95,2028.96,3408.90,3297.97,3581.62,349.84,316.15,12.36,0000 0000 0000 0000 000000
2013-07-24 02:24:32,0.01,0.09,0.00,31.47,33.62,36.08,5.83,31.54,1020.97,2028.94,3408.84,3297.95,3581.43,350.34,316.61,12.36,0000 0000 0000 0000 000000
2013-07-24 02:25:33,0.02,0.09,0.00,31.44,33.62,36.09,5.94,31.83,1020.97,2028.91,3408.59,3297.83,3581.23,350.02,316.35,12.37,0000 0000 0000 0000 000000
2013-07-24 02:26:33,0.03,0.09,0.00,31.46,33.64,36.09,5.84,32.29,1020.97,2028.85,3408.39,3297.61,3581.10,350.36,316.64,12.37,0000 0000 0000 0000 000000
2013-07-24 02:27:33,0.05,0.09,0.00,31.49,33.65,36.10,5.73,31.25,1020.96,2028.75,3408.22,3297.45,3581.04,349.76,316.07,12.38,0000 0000 0000 0000 000000
2013-07-24 02:28:33,-0.01,0.09,0.00,31.50,33.65,36.13,5.79,31.50,1020.99,2028.58,3408.12,3297.32,3581.01,349.81,316.11,12.38,0000 0000 0000 0000 000000
2013-07-24 02:29:33,-0.11,0.09,0.00,31.53,33.66,36.13,5.84,31.50,1020.94,2028.40,3408.05,3297.15,3581.00,350.34,316.54,12.39,0000 0000 0000 0000 000000
2013-07-24 02:30:34,-0.07,0.09,0.00,31.53,33.67,36.14,6.00,32.00,1020.93,2028.28,3408.02,3297.07,3581.00,350.19,317.07,12.40,0000 0000 0000 0000 000000
2013-07-24 02:31:34,-0.11,0.08,0.00,31.51,33.67,36.13,5.84,31.58,1020.93,2028.13,3408.00,3297.02,3580.98,350.34,316.90,12.40,0000 0000 0000 0000 000000
2013-07-24 02:32:34,-0.05,0.08,0.00,31.51,33.68,36.17,5.83,31.54,1020.85,2028.09,3408.00,3297.00,3580.93,349.99,316.22,12.41,0000 0000 0000 0000 000000
2013-07-24 02:33:34,-0.01,0.08,0.00,31.50,33.70,36.17,5.83,31.29,1020.89,2028.05,3408.00,3297.00,3580.77,349.91,316.17,12.41,0000 0000 0000 0000 000000
2013-07-24 02:34:34,-0.02,0.08,0.00,31.49,33.70,36.16,5.68,31.46,1020.89,2028.02,3408.00,3297.00,3580.68,349.33,315.65,12.42,0000 0000 0000 0000 000000
2013-07-24 02:35:35,-0.01,0.08,0.00,31.53,33.70,36.14,5.73,31.58,1020.89,2028.01,3407.95,3297.00,3580.40,349.12,315.53,12.43,0000 0000 0000 0000 000000
2013-07-24 02:36:35,0.02,0.08,0.00,31.52,33.72,36.15,5.80,31.29,1020.90,2028.00,3407.88,3296.99,3580.22,350.29,316.56,12.43,0000 0000 0000 0000 000000